Overview Statistics Trail Chart Weather Telemetry Raw packets
 

This is the latest recevied weather packets stored in our database for station/object F6ZBX-10. If no packets are shown the sender has not sent any weather packets the latest 10 day(s).

<< 1 2 3 4 5 6 7 >>
Time Temp. Humidity Pressure Rain* Wind** Luminosity Snow
1788538870 29.44° C 43% 1020.2 hPa - - - -
1788537970 29.44° C 43% 1020.1 hPa - - - -
1788537070 29.44° C 42% 1020 hPa - - - -
1788536170 29.44° C 42% 1020 hPa - - - -
1788535270 28.89° C 42% 1019.9 hPa - - - -
1788534370 28.89° C 42% 1019.8 hPa - - - -
1788533470 28.89° C 43% 1019.8 hPa - - - -
1788532570 28.89° C 44% 1019.8 hPa - - - -
1788531670 28.33° C 45% 1019.8 hPa - - - -
1788530770 28.33° C 49% 1019.9 hPa - - - -
1788529866 28.33° C 48% 1020.1 hPa - - - -
1788528966 27.78° C 48% 1020.4 hPa - - - -
1788528070 27.78° C 48% 1020.6 hPa - - - -
1788527166 27.78° C 47% 1020.7 hPa - - - -
1788526266 27.22° C 47% 1020.6 hPa - - - -
1788525366 27.22° C 47% 1020.7 hPa - - - -
1788524466 27.22° C 47% 1020.9 hPa - - - -
1788523572 27.22° C 47% 1021.1 hPa - - - -
1788522670 26.67° C 50% 1021.2 hPa - - - -
1788521770 26.67° C 51% 1021.3 hPa - - - -
1788520870 26.67° C 53% 1021.4 hPa - - - -
1788519970 26.67° C 54% 1021.4 hPa - - - -
1788519070 26.67° C 55% 1021.4 hPa - - - -
1788518170 26.11° C 54% 1021.3 hPa - - - -
1788517270 26.11° C 53% 1021.4 hPa - - - -

* Rain since midnight (hover to see other rain measurements)
** Current wind speed in m/s (hover to see current wind gust speed)